Weather History for PAZK - May, 2013

Change the Weather History Date:

Wednesday, May 22, 2013

  Actual Average Record
Temperature  
Mean Temperature 36 °F -  
Max Temperature 46 °F 46 °F 71 °F (2015)
Min Temperature 26 °F 30 °F 26 °F (2000)
Degree Days  
Heating Degree Days 29    
Moisture  
Dew Point 23 °F    
Average Humidity 56    
Maximum Humidity 86    
Minimum Humidity 39    
Precipitation  
Precipitation 0.00 in - - ()
Sea Level Pressure  
Sea Level Pressure 30.07 in    
Wind  
Wind Speed 4 mph (NW)    
Max Wind Speed 8 mph    
Max Gust Speed -    
Visibility 10 miles    
Events      
Averages and records for this station are not official NWS values.
T = Trace of Precipitation, MM = Missing Value Source: NWS Daily Summary

Daily Weather History Graph

Daily Weather History Graph

Search for Another Location

Airport or City:

Trip Planner

Search our weather history database for the weather conditions in past years. The results will help you decide how hot, cold, wet, or windy it might be!

Date:

Astronomy

May. 22, 2013 Rise Set
Actual Time 4:36 AM AKDT 10:55 PM AKDT
Civil Twilight 3:07 AM AKDT 12:28 AM AKDT
Nautical Twilight Sun does not set Sun does not set
Astronomical Twilight Sun does not set Sun does not set
Moon 7:44 PM AKDT (5/22) 3:45 AM AKDT (5/22)
Length of Visible Light 21h 20m
Length of Day
18h 19m
Waxing Gibbous, 92% of the Moon is Illuminated
May 22
Waxing Gibbous
May 24
Full
May 31
Last Quarter
Jun 8
New
Jun 16
First Quarter

Hourly Weather History & Observations

Time (AKDT) Temp. Windchill Dew Point Humidity Pressure Visibility Wind Dir Wind Speed Gust Speed Precip Events Conditions
12:16 AM 33.8 °F - 17.6 °F 52% 30.16 in 10.0 mi Calm Calm - N/A   Clear
12:36 AM 33.8 °F - 17.6 °F 52% 30.16 in 10.0 mi Calm Calm - N/A   Clear
12:56 AM 33.8 °F 29.6 °F 17.6 °F 52% 30.17 in 10.0 mi West 4.6 mph - N/A   Clear
1:16 AM 33.8 °F 28.6 °F 19.4 °F 56% 30.16 in 10.0 mi West 5.8 mph - N/A   Clear
1:36 AM 30.2 °F 24.3 °F 19.4 °F 64% 30.16 in 10.0 mi West 5.8 mph - N/A   Clear
1:56 AM 30.2 °F 23.4 °F 21.2 °F 69% 30.15 in 10.0 mi WSW 6.9 mph - N/A   Clear
2:16 AM 28.4 °F 21.2 °F 21.2 °F 74% 30.15 in 10.0 mi West 6.9 mph - N/A   Clear
2:36 AM 28.4 °F 22.2 °F 21.2 °F 74% 30.14 in 10.0 mi West 5.8 mph - N/A   Clear
2:56 AM 28.4 °F 22.2 °F 21.2 °F 74% 30.14 in 10.0 mi WSW 5.8 mph - N/A   Clear
3:16 AM 26.6 °F 19.1 °F 17.6 °F 69% 30.14 in 10.0 mi West 6.9 mph - N/A   Clear
3:36 AM 26.6 °F 19.1 °F 19.4 °F 74% 30.13 in 10.0 mi West 6.9 mph - N/A   Clear
3:56 AM 26.6 °F 19.1 °F 19.4 °F 74% 30.13 in 10.0 mi West 6.9 mph - N/A   Clear
4:16 AM 26.6 °F 18.2 °F 21.2 °F 80% 30.13 in 10.0 mi West 8.1 mph - N/A   Clear
4:36 AM 26.6 °F 18.2 °F 21.2 °F 80% 30.12 in 10.0 mi West 8.1 mph - N/A   Clear
4:56 AM 26.6 °F 19.1 °F 23.0 °F 86% 30.12 in 10.0 mi West 6.9 mph - N/A   Clear
5:16 AM 26.6 °F 19.1 °F 21.2 °F 80% 30.12 in 10.0 mi West 6.9 mph - N/A   Clear
5:36 AM 26.6 °F 19.1 °F 21.2 °F 80% 30.11 in 10.0 mi West 6.9 mph - N/A   Clear
5:56 AM 26.6 °F 20.0 °F 19.4 °F 74% 30.10 in 10.0 mi West 5.8 mph - N/A   Clear
6:16 AM 28.4 °F 21.2 °F 19.4 °F 69% 30.10 in 10.0 mi West 6.9 mph - N/A   Clear
6:36 AM 30.2 °F 24.3 °F 19.4 °F 64% 30.10 in 10.0 mi West 5.8 mph - N/A   Clear
6:56 AM 30.2 °F 25.4 °F 19.4 °F 64% 30.09 in 10.0 mi WSW 4.6 mph - N/A   Clear
7:16 AM 30.2 °F 25.4 °F 19.4 °F 64% 30.09 in 10.0 mi West 4.6 mph - N/A   Clear
7:36 AM 32.0 °F 28.7 °F 19.4 °F 60% 30.09 in 10.0 mi WSW 3.5 mph - N/A   Clear
7:56 AM 33.8 °F 29.6 °F 21.2 °F 60% 30.09 in 10.0 mi West 4.6 mph - N/A   Clear
8:16 AM 33.8 °F 29.6 °F 21.2 °F 60% 30.08 in 10.0 mi West 4.6 mph - N/A   Clear
8:36 AM 35.6 °F 31.7 °F 21.2 °F 56% 30.08 in 10.0 mi WSW 4.6 mph - N/A   Clear
8:56 AM 35.6 °F 31.7 °F 21.2 °F 56% 30.08 in 10.0 mi WSW 4.6 mph - N/A   Clear
9:16 AM 37.4 °F - 21.2 °F 52% 30.08 in 10.0 mi Calm Calm - N/A   Clear
9:36 AM 41.0 °F - 21.2 °F 45% 30.08 in 10.0 mi Calm Calm - N/A   Clear
9:56 AM 37.4 °F 34.9 °F 17.6 °F 45% 30.07 in 10.0 mi NE 3.5 mph - N/A   Clear
10:16 AM 37.4 °F 33.8 °F 19.4 °F 48% 30.07 in 10.0 mi NE 4.6 mph - N/A   Clear
10:36 AM 39.2 °F 37.0 °F 19.4 °F 45% 30.06 in 10.0 mi NNE 3.5 mph - N/A   Clear
10:56 AM 42.8 °F 41.1 °F 21.2 °F 42% 30.06 in 10.0 mi NNE 3.5 mph - N/A   Clear
11:16 AM 42.8 °F - 21.2 °F 42% 30.06 in 10.0 mi Calm Calm - N/A   Clear
11:36 AM 42.8 °F - 19.4 °F 39% 30.06 in 10.0 mi Calm Calm - N/A   Clear
11:56 AM 44.6 °F 43.1 °F 21.2 °F 39% 30.05 in 10.0 mi North 3.5 mph - N/A   Clear
12:16 PM 42.8 °F - 21.2 °F 42% 30.05 in 10.0 mi Calm Calm - N/A   Clear
12:36 PM 44.6 °F - 23.0 °F 43% 30.05 in 10.0 mi Calm Calm - N/A   Clear
12:56 PM 44.6 °F - 21.2 °F 39% 30.05 in 10.0 mi Calm Calm - N/A   Clear
1:16 PM 44.6 °F 43.1 °F 24.8 °F 46% 30.04 in 10.0 mi NNE 3.5 mph - N/A   Clear
1:36 PM 42.8 °F 41.1 °F 23.0 °F 46% 30.04 in 10.0 mi NE 3.5 mph - N/A   Partly Cloudy
1:56 PM 44.6 °F 43.1 °F 24.8 °F 46% 30.04 in 10.0 mi North 3.5 mph - N/A   Scattered Clouds
2:16 PM 44.6 °F 42.2 °F 21.2 °F 39% 30.03 in 10.0 mi North 4.6 mph - N/A   Mostly Cloudy
2:36 PM 44.6 °F - 23.0 °F 43% 30.03 in 10.0 mi Calm Calm - N/A   Mostly Cloudy
2:56 PM 46.4 °F 45.2 °F 24.8 °F 43% 30.03 in 10.0 mi NNE 3.5 mph - N/A   Mostly Cloudy
3:16 PM 44.6 °F 42.2 °F 23.0 °F 43% 30.02 in 10.0 mi NNE 4.6 mph - N/A   Mostly Cloudy
3:36 PM 42.8 °F 40.1 °F 21.2 °F 42% 30.02 in 10.0 mi NE 4.6 mph - N/A   Mostly Cloudy
3:56 PM 44.6 °F 43.1 °F 23.0 °F 43% 30.02 in 10.0 mi NE 3.5 mph - N/A   Scattered Clouds
4:16 PM 44.6 °F 43.1 °F 23.0 °F 43% 30.02 in 10.0 mi NE 3.5 mph - N/A   Clear
4:36 PM 44.6 °F - 24.8 °F 46% 30.02 in 10.0 mi Calm Calm - N/A   Clear
4:56 PM 44.6 °F 42.2 °F 24.8 °F 46% 30.01 in 10.0 mi ENE 4.6 mph - N/A   Scattered Clouds
5:16 PM 44.6 °F 41.4 °F 24.8 °F 46% 30.01 in 10.0 mi NE 5.8 mph - N/A   Partly Cloudy
5:36 PM 44.6 °F 40.7 °F 24.8 °F 46% 30.01 in 10.0 mi NE 6.9 mph - N/A   Clear
5:56 PM 42.8 °F 38.6 °F 24.8 °F 49% 30.01 in 10.0 mi NE 6.9 mph - N/A   Clear
6:16 PM 42.8 °F 41.1 °F 26.6 °F 53% 30.01 in 10.0 mi NE 3.5 mph - N/A   Clear
6:36 PM 44.6 °F 42.2 °F 26.6 °F 49% 30.01 in 10.0 mi NNE 4.6 mph - N/A   Clear
6:56 PM 42.8 °F 38.6 °F 24.8 °F 49% 30.01 in 10.0 mi NNE 6.9 mph - N/A   Clear
7:16 PM 42.8 °F 41.1 °F 26.6 °F 53% 30.01 in 10.0 mi NNE 3.5 mph - N/A   Clear
7:36 PM 42.8 °F 40.1 °F 26.6 °F 53% 30.01 in 10.0 mi North 4.6 mph - N/A   Clear
7:56 PM 42.8 °F 40.1 °F 26.6 °F 53% 30.01 in 10.0 mi NNE 4.6 mph - N/A   Clear
8:16 PM 42.8 °F 39.3 °F 26.6 °F 53% 30.02 in 10.0 mi NNE 5.8 mph - N/A   Clear
8:36 PM 42.8 °F 41.1 °F 26.6 °F 53% 30.02 in 10.0 mi North 3.5 mph - N/A   Clear
8:56 PM 42.8 °F - 26.6 °F 53% 30.02 in 10.0 mi Calm Calm - N/A   Clear
9:16 PM 42.8 °F - 26.6 °F 53% 30.02 in 10.0 mi Calm Calm - N/A   Clear
9:36 PM 39.2 °F - 26.6 °F 61% 30.02 in 10.0 mi Calm Calm - N/A   Clear
9:56 PM 39.2 °F 35.9 °F 26.6 °F 61% 30.02 in 10.0 mi West 4.6 mph - N/A   Clear
10:16 PM 37.4 °F 34.9 °F 26.6 °F 65% 30.03 in 10.0 mi West 3.5 mph - N/A   Scattered Clouds
10:36 PM 37.4 °F 32.8 °F 26.6 °F 65% 30.03 in 10.0 mi West 5.8 mph - N/A   Partly Cloudy
10:56 PM 37.4 °F 33.8 °F 26.6 °F 65% 30.03 in 10.0 mi WSW 4.6 mph - N/A   Partly Cloudy
11:16 PM 37.4 °F 31.4 °F 28.4 °F 70% 30.03 in 10.0 mi WSW 8.1 mph - N/A   Clear
11:36 PM 35.6 °F 29.9 °F 26.6 °F 70% 30.04 in 10.0 mi West 6.9 mph - N/A   Clear
11:56 PM 35.6 °F 29.2 °F 26.6 °F 70% 30.05 in 10.0 mi West 8.1 mph - N/A   Clear